Time,TemperatureF,DewpointF,PressureIn,WindDirection,WindDirectionDegrees,WindSpeedMPH,WindSpeedGustMPH,Humidity,HourlyPrecipIn,Conditions,Clouds,dailyrainin,SoftwareType,DateUTC
2013-05-11 00:02:00,52.0,48.0,29.38,North,0,0.0,0.0,85,4.19,,,-99.99,,2013-05-11 05:02:00,
2013-05-11 00:12:00,51.0,47.0,29.39,North,0,0.0,0.0,86,4.19,,,-99.99,,2013-05-11 05:12:00,
2013-05-11 00:21:00,51.0,47.0,29.39,North,0,0.0,0.0,86,4.19,,,-99.99,,2013-05-11 05:21:00,
2013-05-11 00:32:00,50.0,46.0,29.39,North,0,0.0,0.0,87,4.19,,,-99.99,,2013-05-11 05:32:00,
2013-05-11 00:42:00,50.0,47.0,29.39,North,0,0.0,0.0,88,4.19,,,-99.99,,2013-05-11 05:42:00,
2013-05-11 00:52:00,50.0,47.0,29.39,North,0,0.0,0.0,88,4.19,,,-99.99,,2013-05-11 05:52:00,
2013-05-11 01:02:00,50.0,47.0,29.38,North,0,0.0,0.0,89,4.19,,,-99.99,,2013-05-11 06:02:00,
2013-05-11 01:12:00,50.0,47.0,29.38,North,0,0.0,0.0,89,4.19,,,-99.99,,2013-05-11 06:12:00,
2013-05-11 01:21:00,49.0,46.0,29.38,North,0,0.0,0.0,89,4.19,,,-99.99,,2013-05-11 06:21:00,
2013-05-11 01:32:00,49.0,46.0,29.39,North,0,0.0,0.0,90,4.19,,,-99.99,,2013-05-11 06:32:00,
2013-05-11 01:42:00,49.0,46.0,29.39,North,0,0.0,0.0,90,4.19,,,-99.99,,2013-05-11 06:42:00,
2013-05-11 01:52:00,49.0,46.0,29.39,North,0,0.0,0.0,90,4.19,,,-99.99,,2013-05-11 06:52:00,
2013-05-11 02:02:00,48.0,45.0,29.39,North,0,0.0,0.0,90,4.19,,,-99.99,,2013-05-11 07:02:00,
2013-05-11 02:11:00,48.0,45.0,29.39,NNW,336,4.0,6.0,90,4.19,,,-99.99,,2013-05-11 07:11:00,
2013-05-11 02:21:00,48.0,45.0,29.39,NNW,336,4.0,6.0,90,4.19,,,-99.99,,2013-05-11 07:21:00,
2013-05-11 02:32:00,48.0,45.0,29.39,NNW,340,5.0,7.0,91,4.19,,,-99.99,,2013-05-11 07:32:00,
2013-05-11 02:42:00,49.0,46.0,29.41,NNW,330,7.0,9.0,91,4.19,,,-99.99,,2013-05-11 07:42:00,
2013-05-11 02:52:00,49.0,46.0,29.41,NNW,330,7.0,9.0,91,4.19,,,-99.99,,2013-05-11 07:52:00,
2013-05-11 03:01:00,51.0,48.0,29.41,NW,321,9.0,13.0,91,4.19,,,-99.99,,2013-05-11 08:01:00,
2013-05-11 03:12:00,54.0,51.0,29.42,North,357,10.0,15.0,89,4.19,,,-99.99,,2013-05-11 08:12:00,
2013-05-11 03:21:00,54.0,51.0,29.42,North,357,10.0,15.0,89,4.19,,,-99.99,,2013-05-11 08:21:00,
2013-05-11 03:31:00,55.0,49.0,29.42,North,359,12.0,16.0,79,4.19,,,-99.99,,2013-05-11 08:31:00,
2013-05-11 03:42:00,54.0,48.0,29.44,NNE,14,8.0,12.0,81,4.19,,,-99.99,,2013-05-11 08:42:00,
2013-05-11 03:52:00,54.0,48.0,29.44,NNE,14,8.0,12.0,81,4.19,,,-99.99,,2013-05-11 08:52:00,
2013-05-11 04:01:00,53.0,48.0,29.44,ENE,65,7.0,11.0,82,4.19,,,-99.99,,2013-05-11 09:01:00,
2013-05-11 04:11:00,53.0,49.0,29.45,North,7,7.0,11.0,85,4.19,,,-99.99,,2013-05-11 09:11:00,
2013-05-11 04:21:00,53.0,49.0,29.45,North,7,7.0,11.0,85,4.19,,,-99.99,,2013-05-11 09:21:00,
2013-05-11 04:32:00,52.0,46.0,29.45,NE,41,9.0,15.0,81,4.19,,,-99.99,,2013-05-11 09:32:00,
2013-05-11 04:42:00,51.0,44.0,29.46,NE,37,9.0,15.0,77,4.19,,,-99.99,,2013-05-11 09:42:00,
2013-05-11 04:52:00,51.0,44.0,29.46,NE,37,9.0,15.0,77,4.19,,,-99.99,,2013-05-11 09:52:00,
2013-05-11 05:03:00,51.0,44.0,29.47,NNE,32,8.0,15.0,76,4.19,,,-99.99,,2013-05-11 10:03:00,
2013-05-11 05:12:00,50.0,43.0,29.47,East,93,9.0,13.0,76,4.19,,,-99.99,,2013-05-11 10:12:00,
2013-05-11 05:22:00,50.0,43.0,29.47,East,93,9.0,13.0,76,4.19,,,-99.99,,2013-05-11 10:22:00,
2013-05-11 05:33:00,49.0,43.0,29.49,NNE,15,7.0,11.0,80,4.19,,,-99.99,,2013-05-11 10:33:00,
2013-05-11 05:42:00,48.0,43.0,29.49,NNE,30,7.0,10.0,82,4.19,,,-99.99,,2013-05-11 10:42:00,
2013-05-11 05:52:00,48.0,43.0,29.49,NNE,30,7.0,10.0,82,4.19,,,-99.99,,2013-05-11 10:52:00,
2013-05-11 06:02:00,47.0,42.0,29.50,NNE,18,7.0,10.0,84,4.19,,,-99.99,,2013-05-11 11:02:00,
2013-05-11 06:11:00,47.0,43.0,29.50,North,0,7.0,12.0,85,4.19,,,-99.99,,2013-05-11 11:11:00,
2013-05-11 06:21:00,47.0,43.0,29.50,North,0,7.0,12.0,85,4.19,,,-99.99,,2013-05-11 11:21:00,
2013-05-11 06:32:00,46.0,42.0,29.52,North,7,8.0,11.0,85,4.19,,,-99.99,,2013-05-11 11:32:00,
2013-05-11 06:42:00,45.0,41.0,29.53,North,10,6.0,9.0,86,4.19,,,-99.99,,2013-05-11 11:42:00,
2013-05-11 06:52:00,45.0,41.0,29.53,North,10,6.0,9.0,86,4.19,,,-99.99,,2013-05-11 11:52:00,
2013-05-11 07:01:00,45.0,41.0,29.54,North,357,6.0,9.0,87,4.19,,,-99.99,,2013-05-11 12:01:00,
2013-05-11 07:11:00,46.0,42.0,29.55,North,349,7.0,10.0,87,4.19,,,-99.99,,2013-05-11 12:11:00,
2013-05-11 07:21:00,46.0,42.0,29.55,North,349,7.0,10.0,87,4.19,,,-99.99,,2013-05-11 12:21:00,
2013-05-11 07:32:00,47.0,43.0,29.55,North,1,8.0,10.0,86,4.19,,,-99.99,,2013-05-11 12:32:00,
2013-05-11 07:42:00,48.0,43.0,29.56,NNW,338,8.0,12.0,84,4.19,,,-99.99,,2013-05-11 12:42:00,
2013-05-11 07:52:00,48.0,43.0,29.56,NNW,338,8.0,12.0,84,4.19,,,-99.99,,2013-05-11 12:52:00,
2013-05-11 08:01:00,48.0,42.0,29.57,NW,326,10.0,14.0,81,4.19,,,-99.99,,2013-05-11 13:01:00,
2013-05-11 08:11:00,49.0,42.0,29.57,NW,308,10.0,13.0,78,4.19,,,-99.99,,2013-05-11 13:11:00,
2013-05-11 08:21:00,49.0,42.0,29.57,NW,308,10.0,13.0,78,4.19,,,-99.99,,2013-05-11 13:21:00,
2013-05-11 08:31:00,50.0,43.0,29.57,NNW,329,13.0,15.0,78,4.19,,,-99.99,,2013-05-11 13:31:00,
2013-05-11 08:41:00,51.0,43.0,29.58,North,6,10.0,14.0,73,4.19,,,-99.99,,2013-05-11 13:41:00,
2013-05-11 08:52:00,51.0,43.0,29.58,North,6,10.0,14.0,73,4.19,,,-99.99,,2013-05-11 13:52:00,
2013-05-11 09:02:00,52.0,43.0,29.58,North,1,9.0,14.0,71,4.19,,,-99.99,,2013-05-11 14:02:00,
2013-05-11 09:11:00,53.0,42.0,29.59,North,359,10.0,15.0,67,4.19,,,-99.99,,2013-05-11 14:11:00,
2013-05-11 09:21:00,53.0,42.0,29.59,North,359,10.0,15.0,67,4.19,,,-99.99,,2013-05-11 14:21:00,
2013-05-11 09:32:00,54.0,43.0,29.59,NNW,338,8.0,13.0,65,4.19,,,-99.99,,2013-05-11 14:32:00,
2013-05-11 09:41:00,55.0,40.0,29.59,North,4,11.0,17.0,57,4.19,,,-99.99,,2013-05-11 14:41:00,
2013-05-11 09:52:00,55.0,40.0,29.59,North,4,11.0,17.0,57,4.19,,,-99.99,,2013-05-11 14:52:00,
2013-05-11 10:01:00,55.0,39.0,29.59,NW,321,12.0,17.0,55,4.19,,,-99.99,,2013-05-11 15:01:00,
2013-05-11 10:11:00,56.0,38.0,29.57,NW,316,19.0,34.0,51,4.19,,,-99.99,,2013-05-11 15:11:00,
2013-05-11 10:21:00,56.0,38.0,29.57,NW,316,19.0,34.0,51,4.19,,,-99.99,,2013-05-11 15:21:00,
2013-05-11 10:32:00,57.0,40.0,29.59,North,356,12.0,19.0,53,4.19,,,-99.99,,2013-05-11 15:32:00,
2013-05-11 10:43:00,57.0,39.0,29.60,North,0,14.0,20.0,51,4.19,,,-99.99,,2013-05-11 15:43:00,
2013-05-11 10:53:00,57.0,39.0,29.60,North,0,14.0,20.0,51,4.19,,,-99.99,,2013-05-11 15:53:00,
2013-05-11 11:02:00,58.0,39.0,29.60,NW,314,17.0,24.0,49,4.19,,,-99.99,,2013-05-11 16:02:00,
2013-05-11 11:12:00,58.0,40.0,29.60,North,0,15.0,22.0,51,4.19,,,-99.99,,2013-05-11 16:12:00,
2013-05-11 11:22:00,58.0,40.0,29.60,North,0,15.0,22.0,51,4.19,,,-99.99,,2013-05-11 16:22:00,
2013-05-11 11:33:00,58.0,38.0,29.61,NW,305,16.0,22.0,48,4.19,,,-99.99,,2013-05-11 16:33:00,
2013-05-11 11:42:00,59.0,39.0,29.61,NNW,340,16.0,21.0,48,4.19,,,-99.99,,2013-05-11 16:42:00,
2013-05-11 11:53:00,59.0,39.0,29.61,NNW,340,16.0,21.0,48,4.19,,,-99.99,,2013-05-11 16:53:00,
2013-05-11 12:02:00,59.0,39.0,29.61,NNW,333,16.0,23.0,47,4.19,,,-99.99,,2013-05-11 17:02:00,
2013-05-11 12:12:00,59.0,37.0,29.61,NW,326,24.0,31.0,44,4.19,,,-99.99,,2013-05-11 17:12:00,
2013-05-11 12:22:00,59.0,37.0,29.61,NW,326,24.0,31.0,44,4.19,,,-99.99,,2013-05-11 17:22:00,
2013-05-11 12:31:00,58.0,37.0,29.62,NNW,329,24.0,30.0,46,4.19,,,-99.99,,2013-05-11 17:31:00,
2013-05-11 12:41:00,59.0,37.0,29.61,NNE,32,17.0,25.0,43,4.19,,,-99.99,,2013-05-11 17:41:00,
2013-05-11 12:52:00,59.0,37.0,29.61,NNE,32,17.0,25.0,43,4.19,,,-99.99,,2013-05-11 17:52:00,
2013-05-11 13:01:00,59.0,37.0,29.62,North,6,16.0,24.0,44,4.19,,,-99.99,,2013-05-11 18:01:00,
2013-05-11 13:11:00,59.0,38.0,29.62,NW,316,19.0,27.0,46,4.19,,,-99.99,,2013-05-11 18:11:00,
2013-05-11 13:21:00,59.0,38.0,29.62,NW,316,19.0,27.0,46,4.19,,,-99.99,,2013-05-11 18:21:00,
2013-05-11 13:32:00,60.0,37.0,29.62,North,0,15.0,23.0,43,4.19,,,-99.99,,2013-05-11 18:32:00,
2013-05-11 13:41:00,60.0,37.0,29.62,NNE,14,15.0,21.0,43,4.19,,,-99.99,,2013-05-11 18:41:00,
2013-05-11 13:52:00,60.0,37.0,29.62,NNE,14,15.0,21.0,43,4.19,,,-99.99,,2013-05-11 18:52:00,
2013-05-11 14:02:00,59.0,34.0,29.63,NW,322,23.0,29.0,39,4.19,,,-99.99,,2013-05-11 19:02:00,
2013-05-11 14:11:00,59.0,35.0,29.62,WNW,301,15.0,26.0,40,4.19,,,-99.99,,2013-05-11 19:11:00,
2013-05-11 14:21:00,59.0,35.0,29.62,WNW,301,15.0,26.0,40,4.19,,,-99.99,,2013-05-11 19:21:00,
2013-05-11 14:32:00,60.0,36.0,29.63,North,356,13.0,23.0,40,4.19,,,-99.99,,2013-05-11 19:32:00,
2013-05-11 14:41:00,60.0,34.0,29.62,NW,323,14.0,23.0,37,4.19,,,-99.99,,2013-05-11 19:41:00,
2013-05-11 14:52:00,60.0,34.0,29.62,NW,323,14.0,23.0,37,4.19,,,-99.99,,2013-05-11 19:52:00,
2013-05-11 15:02:00,60.0,31.0,29.63,NW,318,18.0,27.0,33,4.19,,,-99.99,,2013-05-11 20:02:00,
2013-05-11 15:12:00,60.0,32.0,29.63,NNW,342,14.0,19.0,35,4.19,,,-99.99,,2013-05-11 20:12:00,
2013-05-11 15:22:00,60.0,32.0,29.63,NNW,342,14.0,19.0,35,4.19,,,-99.99,,2013-05-11 20:22:00,
2013-05-11 15:32:00,60.0,32.0,29.63,NW,323,15.0,23.0,34,4.19,,,-99.99,,2013-05-11 20:32:00,
2013-05-11 15:42:00,60.0,31.0,29.63,North,8,15.0,23.0,33,4.19,,,-99.99,,2013-05-11 20:42:00,
2013-05-11 15:52:00,60.0,31.0,29.63,North,8,15.0,23.0,33,4.19,,,-99.99,,2013-05-11 20:52:00,
2013-05-11 16:02:00,59.0,31.0,29.62,NNW,338,20.0,30.0,34,4.19,,,-99.99,,2013-05-11 21:02:00,
2013-05-11 16:11:00,60.0,31.0,29.62,NW,319,15.0,23.0,33,4.19,,,-99.99,,2013-05-11 21:11:00,
2013-05-11 16:21:00,60.0,31.0,29.62,NW,319,15.0,23.0,33,4.19,,,-99.99,,2013-05-11 21:21:00,
2013-05-11 16:33:00,60.0,31.0,29.62,NW,322,20.0,29.0,33,4.19,,,-99.99,,2013-05-11 21:33:00,
2013-05-11 16:43:00,60.0,31.0,29.62,NW,322,20.0,29.0,33,4.19,,,-99.99,,2013-05-11 21:43:00,
2013-05-11 16:52:00,59.0,31.0,29.61,NW,321,18.0,23.0,34,4.19,,,-99.99,,2013-05-11 21:52:00,
2013-05-11 17:02:00,59.0,28.0,29.61,NW,325,18.0,23.0,31,4.19,,,-99.99,,2013-05-11 22:02:00,
2013-05-11 17:13:00,59.0,29.0,29.61,NW,316,18.0,24.0,32,4.19,,,-99.99,,2013-05-11 22:13:00,
2013-05-11 17:23:00,59.0,29.0,29.61,NW,316,18.0,24.0,32,4.19,,,-99.99,,2013-05-11 22:23:00,
2013-05-11 17:33:00,59.0,33.0,29.61,NW,316,16.0,24.0,37,4.19,,,-99.99,,2013-05-11 22:33:00,
2013-05-11 17:42:00,59.0,31.0,29.61,NW,312,16.0,19.0,34,4.19,,,-99.99,,2013-05-11 22:42:00,
2013-05-11 17:52:00,59.0,31.0,29.61,NW,312,16.0,19.0,34,4.19,,,-99.99,,2013-05-11 22:52:00,
2013-05-11 18:02:00,59.0,32.0,29.60,NNE,20,12.0,19.0,36,4.19,,,-99.99,,2013-05-11 23:02:00,
2013-05-11 18:12:00,59.0,31.0,29.60,NNW,330,20.0,24.0,34,4.19,,,-99.99,,2013-05-11 23:12:00,
2013-05-11 18:22:00,59.0,31.0,29.60,NNW,330,20.0,24.0,34,4.19,,,-99.99,,2013-05-11 23:22:00,
2013-05-11 18:32:00,59.0,30.0,29.60,North,6,17.0,21.0,33,4.19,,,-99.99,,2013-05-11 23:32:00,
2013-05-11 18:42:00,58.0,30.0,29.60,NNE,20,15.0,21.0,34,4.19,,,-99.99,,2013-05-11 23:42:00,
2013-05-11 18:52:00,58.0,30.0,29.60,NNE,20,15.0,21.0,34,4.19,,,-99.99,,2013-05-11 23:52:00,
2013-05-11 19:01:00,58.0,29.0,29.60,NW,325,16.0,20.0,33,4.19,,,-99.99,,2013-05-12 00:01:00,
2013-05-11 19:11:00,58.0,29.0,29.60,NW,325,16.0,20.0,33,4.19,,,-99.99,,2013-05-12 00:11:00,
2013-05-11 19:21:00,58.0,31.0,29.60,NNE,18,12.0,17.0,35,4.19,,,-99.99,,2013-05-12 00:21:00,
2013-05-11 19:32:00,58.0,32.0,29.60,NNE,28,9.0,15.0,37,4.19,,,-99.99,,2013-05-12 00:32:00,
2013-05-11 19:42:00,57.0,32.0,29.60,North,11,10.0,15.0,38,4.19,,,-99.99,,2013-05-12 00:42:00,
2013-05-11 19:52:00,57.0,32.0,29.60,North,11,10.0,15.0,38,4.19,,,-99.99,,2013-05-12 00:52:00,
2013-05-11 20:01:00,56.0,31.0,29.60,NNE,15,9.0,14.0,38,4.19,,,-99.99,,2013-05-12 01:01:00,
2013-05-11 20:11:00,56.0,31.0,29.59,NNE,13,9.0,14.0,39,4.19,,,-99.99,,2013-05-12 01:11:00,
2013-05-11 20:21:00,56.0,31.0,29.59,NNE,13,9.0,14.0,39,4.19,,,-99.99,,2013-05-12 01:21:00,
2013-05-11 20:32:00,55.0,32.0,29.60,North,6,7.0,10.0,42,4.19,,,-99.99,,2013-05-12 01:32:00,
2013-05-11 20:41:00,53.0,32.0,29.59,North,356,6.0,9.0,45,4.19,,,-99.99,,2013-05-12 01:41:00,
2013-05-11 20:52:00,53.0,32.0,29.59,North,356,6.0,9.0,45,4.19,,,-99.99,,2013-05-12 01:52:00,
2013-05-11 21:01:00,51.0,33.0,29.60,NNE,30,3.0,5.0,49,4.19,,,-99.99,,2013-05-12 02:01:00,
2013-05-11 21:11:00,49.0,32.0,29.59,NNE,14,3.0,5.0,52,4.19,,,-99.99,,2013-05-12 02:11:00,
2013-05-11 21:22:00,49.0,32.0,29.59,NNE,14,3.0,5.0,52,4.19,,,-99.99,,2013-05-12 02:22:00,
2013-05-11 21:31:00,48.0,32.0,29.59,NE,44,1.0,3.0,54,4.19,,,-99.99,,2013-05-12 02:31:00,
2013-05-11 21:42:00,48.0,33.0,29.59,NNE,32,1.0,3.0,55,4.19,,,-99.99,,2013-05-12 02:42:00,
2013-05-11 21:52:00,48.0,33.0,29.59,NNE,32,1.0,3.0,55,4.19,,,-99.99,,2013-05-12 02:52:00,
2013-05-11 22:01:00,47.0,32.0,29.59,NNE,30,0.0,3.0,56,4.19,,,-99.99,,2013-05-12 03:01:00,
2013-05-11 22:11:00,46.0,32.0,29.59,North,0,0.0,0.0,57,4.19,,,-99.99,,2013-05-12 03:11:00,
2013-05-11 22:22:00,46.0,32.0,29.59,North,0,0.0,0.0,57,4.19,,,-99.99,,2013-05-12 03:22:00,
2013-05-11 22:32:00,46.0,32.0,29.59,North,0,0.0,0.0,58,4.19,,,-99.99,,2013-05-12 03:32:00,
2013-05-11 22:42:00,44.0,31.0,29.59,North,0,0.0,0.0,60,4.19,,,-99.99,,2013-05-12 03:42:00,
2013-05-11 22:53:00,44.0,31.0,29.59,North,0,0.0,0.0,60,4.19,,,-99.99,,2013-05-12 03:53:00,
2013-05-11 23:02:00,-999.0,-99.9,29.59,North,0,0.0,0.0,61,4.19,,,-99.99,,2013-05-12 04:02:00,
2013-05-11 23:12:00,44.0,31.0,29.59,North,0,0.0,0.0,61,4.19,,,-99.99,,2013-05-12 04:12:00,
2013-05-11 23:22:00,43.0,31.0,29.59,North,0,0.0,0.0,62,4.19,,,-99.99,,2013-05-12 04:22:00,
2013-05-11 23:33:00,42.0,30.0,29.58,North,0,0.0,0.0,63,4.19,,,-99.99,,2013-05-12 04:33:00,
2013-05-11 23:43:00,40.0,31.0,29.58,North,0,0.0,0.0,69,4.19,,,-99.99,,2013-05-12 04:43:00,
2013-05-11 23:52:00,40.0,31.0,29.58,North,0,0.0,0.0,69,4.19,,,-99.99,,2013-05-12 04:52:00,